Content
SEND FEEDBACK

Daily
Averages
Monthly
Summary
United States of America

EDENTON, NORTH CAROLINA


Home > North America > United States > North Carolina
Elevation: 19 feet     Latitude: 36 01N     Longitude: 076 33W

WEATHER
 
SELECT A DAY
Number of Records: 404,875;   Date Range: 3/17/98 - 12/20/14
 
SHARE

PRINT THIS DATA

[ ← Previous Day ]
WEATHER ALMANAC - FEBRUARY 13, 2013
[ Next Day → ]
[ °C ]   °F
Weather ElementAverageHighLow
Temperature49.4 °F52 °F (7:55 pm)47.3 °F (6:15 am)
Dewpoint48.2 °F52 °F (7:55 pm)41.4 °F (12:35 am)
Humidity95.7 %100 % (6:15 am)74 % (12:35 am)
Barometer29.76 in29.95 in (12:35 am)29.60 in (5:35 pm)
Wind Speed4.7 mph13.8 mph (8:55 pm)
Wind Gust21.9 mph (9:55 pm)
Weather ElementAverage
Visibility6.8 mi
Wind DirectionESE (120.6 °)

Weather ElementTotal
Precipitation0.49 in
Heating Degree Days15.4 (Base 65)
Averaged from 71 records on February 13, 2013
WEATHER CONDITIONS BREAKOUT
WIND DIRECTION BREAKOUT
WEATHER BY HOUR - FEBRUARY 13, 2013
[ °C ]   °F
Local TimeTemperatureDewpointHumidityBarometerVisibilityWind DirectionWind SpeedGust SpeedPrecipitationEventsConditions
12:35 AM49.3 °F41.4 °F74 %29.95 in10.0 miCalmScattered Clouds
12:55 AM49.6 °F42.4 °F76 %29.95 in10.0 miCalmOvercast
1:15 AM48.7 °F42.8 °F80 %29.95 in10.0 miCalmOvercast
1:35 AM48.2 °F41.9 °F79 %29.95 in10.0 miCalmLight Drizzle
1:55 AM48.4 °F44.2 °F86 %29.94 in10.0 miSSW (200°)4.6 mphLight Drizzle
2:15 AM49.5 °F42.8 °F78 %29.92 in10.0 miSouth (170°)4.6 mphLight Drizzle
2:35 AM50.2 °F42.4 °F75 %29.89 in10.0 miSSE (160°)5.8 mphScattered Clouds
2:55 AM49.8 °F43.7 °F79 %29.89 in10.0 miSouth (170°)4.6 mphScattered Clouds
3:15 AM49.6 °F44.6 °F83 %29.87 in10.0 miSouth (170°)3.5 mphScattered Clouds
3:35 AM49.3 °F45.7 °F87 %29.84 in10.0 miSSE (160°)6.9 mphScattered Clouds
3:55 AM49.1 °F46.4 °F90 %29.87 in10.0 miSSW (210°)3.5 mphScattered Clouds
4:15 AM49.1 °F46.9 °F92 %29.88 in10.0 miSW (220°)3.5 mphMostly Cloudy
4:35 AM49.1 °F46.6 °F91 %29.88 in10.0 miCalmLight Drizzle
4:55 AM49.1 °F46.8 °F92 %29.86 in10.0 miCalmOvercast
5:15 AM48.2 °F46.6 °F94 %29.83 in10.0 miEast (100°)3.5 mphRainLight Rain
5:35 AM47.8 °F46.6 °F95 %29.84 in10.0 miCalmRainLight Rain
5:55 AM47.8 °F47.3 °F98 %29.84 in5.0 miCalm0.02 inRainLight Rain
6:15 AM47.3 °F47.3 °F100 %29.82 in10.0 miEast (100°)3.5 mph0.02 inRainRain
6:35 AM47.3 °F47.3 °F100 %29.83 in10.0 miCalm0.02 inDrizzle
6:55 AM47.3 °F47.3 °F100 %29.84 in10.0 miCalm0.02 inDrizzle
7:15 AM47.5 °F47.5 °F100 %29.83 in7.0 miSSE (150°)4.6 mph0.01 inDrizzle
7:35 AM48.0 °F48.0 °F100 %29.84 in7.0 miCalm0.01 inDrizzle
7:55 AM48.2 °F48.2 °F100 %29.86 in3.0 miCalm0.04 inRainRain
8:15 AM48.2 °F48.2 °F100 %29.86 in2.5 miCalm0.04 inRainHeavy Rain
8:35 AM48.2 °F48.2 °F100 %29.87 in2.0 miCalm0.08 inRainRain
8:55 AM48.2 °F48.2 °F100 %29.87 in2.5 miCalm0.11 inRainHeavy Rain
9:15 AM48.2 °F48.2 °F100 %29.86 in2.5 miCalm0.02 inDrizzle
9:35 AM48.2 °F48.2 °F100 %29.84 in4.0 miCalm0.03 inLight Drizzle
9:55 AM48.6 °F48.6 °F100 %29.82 in10.0 miCalm0.03 inOvercast
10:15 AM49.1 °F49.1 °F100 %29.79 in10.0 miNNE (20°)3.5 mphOvercast
10:35 AM49.3 °F49.3 °F100 %29.78 in4.0 miNNE (20°)4.6 mphOvercast
10:55 AM49.3 °F49.3 °F100 %29.78 in5.0 miNNE (20°)3.5 mphOvercast
11:15 AM49.3 °F49.3 °F100 %29.76 in4.0 miNNE (20°)5.8 mphOvercast
11:35 AM49.8 °F49.8 °F100 %29.74 in2.5 miENE (70°)4.6 mphDrizzle
11:55 AM49.6 °F49.6 °F100 %29.73 in4.0 miNE (40°)3.5 mph0.01 inOvercast
12:15 PM49.5 °F49.5 °F100 %29.74 in3.0 miNNE (20°)5.8 mphDrizzle
12:35 PM49.3 °F49.3 °F100 %29.73 in2.0 miNNE (20°)4.6 mphDrizzle
12:55 PM49.5 °F49.5 °F100 %29.71 in3.0 miNE (40°)3.5 mph0.01 inOvercast
1:15 PM49.8 °F49.8 °F100 %29.70 in2.5 miCalmLight Drizzle
1:35 PM49.6 °F49.6 °F100 %29.68 in3.0 miNE (50°)4.6 mphOvercast
1:55 PM50.0 °F50.0 °F100 %29.64 in3.0 miEast (80°)5.8 mphOvercast
2:15 PM50.0 °F50.0 °F100 %29.66 in3.0 miENE (70°)3.5 mphOvercast
2:35 PM50.2 °F50.2 °F100 %29.63 in2.0 miESE (120°)6.9 mphOvercast
2:55 PM50.0 °F50.0 °F100 %29.61 in3.0 miSSE (150°)10.4 mphOvercast
3:15 PM49.1 °F49.1 °F100 %29.63 in5.0 miESE (120°)8.1 mphOvercast
3:35 PM48.7 °F48.7 °F100 %29.63 in4.0 miESE (110°)6.9 mphOvercast
3:55 PM48.7 °F48.7 °F100 %29.64 in2.5 miCalmLight Drizzle
4:15 PM48.2 °F48.2 °F100 %29.62 in2.0 miSSE (150°)5.8 mphLight Drizzle
4:35 PM49.1 °F49.1 °F100 %29.61 in2.5 miSSE (150°)3.5 mph0.01 inLight Drizzle
4:55 PM48.9 °F48.9 °F100 %29.61 in2.0 miCalm0.01 inRainLight Rain
5:15 PM49.1 °F49.1 °F100 %29.63 in2.5 miSSW (200°)3.5 mphOvercast
5:35 PM49.1 °F49.1 °F100 %29.60 in1.5 miSouth (190°)3.5 mphOvercast
5:55 PM49.6 °F49.6 °F100 %29.61 in2.5 miSSW (200°)5.8 mphOvercast
6:15 PM50.0 °F50.0 °F100 %29.61 in3.0 miSW (220°)4.6 mphOvercast
6:35 PM50.2 °F50.2 °F100 %29.62 in5.0 miSW (220°)8.1 mphOvercast
6:55 PM50.9 °F50.9 °F100 %29.63 in10.0 miWSW (250°)9.2 mph16.1 mphOvercast
7:15 PM51.4 °F51.4 °F100 %29.63 in10.0 miWest (270°)12.7 mph16.1 mphOvercast
7:35 PM51.8 °F51.8 °F100 %29.66 in10.0 miWest (260°)10.4 mph16.1 mphOvercast
7:55 PM52.0 °F52.0 °F100 %29.65 in10.0 miWest (260°)12.7 mph16.1 mphOvercast
8:15 PM51.8 °F51.4 °F99 %29.66 in10.0 miWest (260°)11.5 mph16.1 mphOvercast
8:35 PM51.8 °F50.9 °F97 %29.65 in10.0 miWest (270°)9.2 mph20.7 mphOvercast
8:55 PM51.8 °F50.0 °F94 %29.68 in10.0 miWest (280°)13.8 mph20.7 mphOvercast
9:15 PM51.1 °F49.5 °F94 %29.70 in10.0 miWest (280°)11.5 mph18.4 mphOvercast
9:35 PM50.9 °F49.6 °F95 %29.71 in10.0 miWNW (290°)11.5 mph16.1 mphOvercast
9:55 PM50.9 °F49.1 °F94 %29.71 in10.0 miWNW (290°)12.7 mph21.9 mphOvercast
10:15 PM50.4 °F48.7 °F94 %29.72 in10.0 miWest (280°)9.2 mph19.6 mphMostly Cloudy
10:35 PM50.2 °F49.1 °F96 %29.73 in10.0 miWest (280°)8.1 mphOvercast
10:55 PM50.0 °F48.9 °F96 %29.73 in10.0 miWNW (290°)6.9 mphOvercast
11:15 PM50.0 °F49.3 °F97 %29.74 in10.0 miWNW (300°)8.1 mphOvercast
11:35 PM50.0 °F49.1 °F97 %29.75 in10.0 miWNW (300°)10.4 mphOvercast
11:55 PM49.6 °F48.2 °F95 %29.75 in10.0 miWNW (290°)9.2 mph16.1 mphOvercast
Hourly data recorded from KEDE, located miles away from Edenton, North Carolina







STORIES FROM OUR PARTNERS